This demonstration page uses our WeatherBlox Daily Observations layout. Learn more.

Hourly Observations for November 14, 2019

Temp ( °F °C ) Dew Point ( °F °C ) Humidity (%) Winds ( mph kmh ) Pressure ( in mb ) Visibility ( mi km ) Precip ( " mm )
12:15 am 00:15 Cloudy 31 -0.7 29 -1.7 93 93 WNW 5 7 30.27 1025 10 16.09344 0 0
12:35 am 00:35 Cloudy 32 0 30 -1.3 91 91 WNW 6 9 30.3 1026 10 16.09344 0 0
12:55 am 00:55 Cloudy 33 0.3 31 -0.8 92 92 NW 7 11 30.3 1026 10 16.09344 0 0
1:15 am 01:15 Cloudy 32 0 30 -1.1 92 92 NW 7 11 30.3 1026 10 16.09344 0 0
1:35 am 01:35 Cloudy 34 1.2 32 0.1 92 92 NW 6 9 30.33 1027 10 16.09344 0 0
1:55 am 01:55 Cloudy 34 0.9 31 -0.5 90 90 WNW 3 6 30.33 1027 10 16.09344 0 0
2:15 am 02:15 Cloudy 34 1.1 32 0 92 92 NW 6 9 30.33 1027 10 16.09344 0 0
2:35 am 02:35 Cloudy 34 1.1 32 0 92 92 NW 3 6 30.33 1027 10 16.09344 0 0
2:55 am 02:55 Cloudy 35 1.6 32 0.2 91 91 NW 5 7 30.3 1026 10 16.09344 0 0
3:15 am 03:15 Cloudy 35 1.8 32 0.2 89 89 NW 3 6 30.36 1028 10 16.09344 0 0
3:35 am 03:35 Cloudy 36 2 32 0.2 88 88 NNW 5 7 30.33 1027 10 16.09344 0 0
3:55 am 03:55 Cloudy 36 2 32 0.1 87 87 NNW 6 9 30.33 1027 10 16.09344 0 0
4:15 am 04:15 Cloudy 36 2 32 -0.1 86 86 NW 7 11 30.33 1027 10 16.09344 0 0
4:35 am 04:35 Mostly Cloudy 35 1.5 30 -1 84 84 NW 8 13 30.36 1028 10 16.09344 0 0
4:55 am 04:55 Partly Cloudy 32 0.1 28 -2 86 86 NW 6 9 30.36 1028 10 16.09344 0 0
5:15 am 05:15 Partly Cloudy 30 -1.1 27 -2.7 89 89 WNW 7 11 30.36 1028 10 16.09344 0 0
5:35 am 05:35 Clear 29 -1.7 26 -3.2 90 90 WNW 3 6 30.42 1030 10 16.09344 0 0
5:55 am 05:55 Clear 28 -2.4 26 -3.6 92 92 WNW 3 6 30.42 1030 10 16.09344 0 0
6:15 am 06:15 Clear 27 -3 25 -3.9 94 94 WNW 6 9 30.42 1030 10 16.09344 0 0
6:35 am 06:35 Clear 26 -3.5 24 -4.5 93 93 NW 6 9 30.42 1030 10 16.09344 0 0
6:55 am 06:55 Clear 25 -4 24 -4.7 95 95 NW 5 7 30.45 1031 10 16.09344 0 0
7:15 am 07:15 Clear 25 -4 24 -4.5 96 96 NW 6 9 30.45 1031 10 16.09344 0 0
7:35 am 07:35 Sunny 23 -5 22 -5.6 96 96 WNW 3 6 30.48 1032 10 16.09344 0 0
7:55 am 07:55 Sunny 25 -4.1 24 -4.4 98 98 WNW 5 7 30.48 1032 10 16.09344 0 0
8:15 am 08:15 Sunny 28 -2.5 27 -3 96 96 WNW 5 7 30.45 1031 10 16.09344 0 0
8:35 am 08:35 Sunny 31 -0.6 29 -1.5 94 94 W 7 11 30.42 1030 10 16.09344 0 0
8:55 am 08:55 Sunny 32 0.1 31 -0.7 94 94 WNW 7 11 30.42 1030 10 16.09344 0 0
9:15 am 09:15 Sunny 35 1.5 32 0 90 90 WNW 6 9 30.42 1030 10 16.09344 0 0
9:35 am 09:35 Sunny 37 3 33 0.6 84 84 NW 5 7 30.39 1029 10 16.09344 0 0
9:55 am 09:55 Sunny 40 4.4 33 0.7 77 77 NW 8 13 30.42 1030 10 16.09344 0 0
10:15 am 10:15 Sunny 42 5.5 33 0.3 69 69 NNW 7 11 30.42 1030 10 16.09344 0 0
10:35 am 10:35 Sunny 43 6.1 32 0 65 65 WNW 8 13 30.39 1029 10 16.09344 0 0
10:55 am 10:55 Sunny 45 7.4 32 -0.2 59 59 WNW 8 13 30.39 1029 10 16.09344 0 0
11:15 am 11:15 Sunny 47 8.1 31 -0.4 55 55 NW 8 13 30.39 1029 10 16.09344 0 0
11:35 am 11:35 Sunny 48 9 31 -0.4 52 52 WNW 8 13 30.39 1029 10 16.09344 0 0
11:55 am 11:55 Sunny 49 9.2 31 -0.6 51 51 NNW 8 13 30.36 1028 10 16.09344 0 0
12:15 pm 12:15 Sunny 49 9.7 32 -0.1 51 51 NW 7 11 30.33 1027 10 16.09344 0 0
12:35 pm 12:35 Sunny 50 10.2 32 0 49 49 NW 9 15 30.33 1027 10 16.09344 0 0
12:55 pm 12:55 Sunny 51 10.4 32 0 49 49 NW 8 13 30.33 1027 10 16.09344 0 0
1:15 pm 13:15 Sunny 51 10.8 32 0.2 48 48 WNW 10 17 30.3 1026 10 16.09344 0 0
1:35 pm 13:35 Sunny 52 11 32 0.2 48 48 WNW 7 11 30.3 1026 10 16.09344 0 0
1:55 pm 13:55 Sunny 53 11.6 33 0.4 46 46 WNW 6 9 30.3 1026 10 16.09344 0 0
2:15 pm 14:15 Sunny 53 11.5 33 0.4 47 47 W 7 11 30.3 1026 10 16.09344 0 0
2:35 pm 14:35 Sunny 53 11.9 34 0.9 47 47 W 5 7 30.24 1024 10 16.09344 0 0
2:55 pm 14:55 Sunny 54 12 33 0.7 46 46 NW 7 11 30.24 1024 10 16.09344 0 0
3:15 pm 15:15 Sunny 54 12.1 33 0.5 45 45 WNW 7 11 30.24 1024 10 16.09344 0 0
3:35 pm 15:35 Sunny 54 12.1 33 0.6 46 46 W 8 13 30.24 1024 10 16.09344 0 0
3:55 pm 15:55 Sunny 54 12 33 0.8 47 47 WSW 6 9 30.24 1024 10 16.09344 0 0
4:15 pm 16:15 Sunny 53 11.7 34 1.2 49 49 WSW 6 9 30.24 1024 10 16.09344 0 0
4:35 pm 16:35 Sunny 52 11.2 34 1.1 50 50 WSW 6 9 30.27 1025 10 16.09344 0 0
4:55 pm 16:55 Sunny 51 10.5 34 0.9 52 52 SW 5 7 30.27 1025 10 16.09344 0 0
5:15 pm 17:15 Sunny 49 9.3 33 0.3 54 54 SSW 6 9 30.27 1025 10 16.09344 0 0
5:35 pm 17:35 Clear 46 8 32 0 57 57 SSW 5 7 30.3 1026 10 16.09344 0 0
5:55 pm 17:55 Clear 45 7.3 32 0 60 60 SSW 5 7 30.33 1027 10 16.09344 0 0
6:15 pm 18:15 Clear 43 6.1 31 -0.3 64 64 S 3 6 30.33 1027 10 16.09344 0 0
6:35 pm 18:35 Clear 41 5.1 31 -0.8 66 66 S 3 6 30.36 1028 10 16.09344 0 0
6:55 pm 18:55 Clear 40 4.3 30 -1 69 69 S 5 7 30.36 1028 10 16.09344 0 0
7:15 pm 19:15 Clear 39 3.9 30 -1.1 70 70 S 7 11 30.36 1028 10 16.09344 0 0
7:35 pm 19:35 Clear 38 3.3 30 -1.3 72 72 S 8 13 30.36 1028 10 16.09344 0 0
7:55 pm 19:55 Clear 38 3.1 30 -1.3 73 73 S 7 11 30.36 1028 10 16.09344 0 0
8:15 pm 20:15 Clear 40 4.3 30 -0.9 69 69 S 7 11 30.36 1028 10 16.09344 0 0
8:35 pm 20:35 Clear 42 5.5 31 -0.7 65 65 S 10 17 30.33 1027 10 16.09344 0 0
8:55 pm 20:55 Clear 40 4.4 30 -1 68 68 S 9 15 30.36 1028 10 16.09344 0 0
9:15 pm 21:15 Clear 40 4.2 31 -0.8 70 70 SSW 9 15 30.33 1027 10 16.09344 0 0
9:35 pm 21:35 Clear 39 3.8 30 -1 71 71 SSW 9 15 30.36 1028 10 16.09344 0 0
9:55 pm 21:55 Clear 40 4.5 31 -0.5 70 70 SSW 9 15 30.36 1028 10 16.09344 0 0
10:15 pm 22:15 Clear 39 4 31 -0.7 72 72 SSW 12 19 30.36 1028 10 16.09344 0 0
10:35 pm 22:35 Clear 40 4.2 31 -0.6 71 71 SSW 12 19 30.36 1028 10 16.09344 0 0
10:55 pm 22:55 Clear 38 3.5 30 -1 73 73 SSW 9 15 30.36 1028 10 16.09344 0 0
11:15 pm 23:15 Clear 37 2.9 30 -1 76 76 SSW 10 17 30.33 1027 10 16.09344 0 0
11:35 pm 23:35 Clear 38 3.1 30 -1 75 75 SSW 6 9 30.33 1027 10 16.09344 0 0
11:55 pm 23:55 Clear 37 2.6 30 -1 77 77 SW 8 13 30.33 1027 10 16.09344 0 0

Powered by AerisWeather